Weather History for Clinton-Sherman, OK

Change the Weather History Date:

Tuesday, October 2, 2012

  Actual Average Record
Temperature  
Mean Temperature 62 °F -  
Max Temperature 73 °F 76 °F 96 °F (2000)
Min Temperature 51 °F 53 °F 42 °F (2004)
Degree Days  
Heating Degree Days 4    
Growing Degree Days 12 (Base 50)    
Moisture  
Dew Point 43 °F    
Average Humidity 56    
Maximum Humidity 86    
Minimum Humidity 24    
Precipitation  
Precipitation 0.00 in - - ()
Sea Level Pressure  
Sea Level Pressure 29.99 in    
Wind  
Wind Speed 12 mph (NNE)    
Max Wind Speed 15 mph    
Max Gust Speed 17 mph    
Visibility 10 miles    
Events      
Averages and records for this station are not official NWS values.
T = Trace of Precipitation, MM = Missing Value Source: NWS Daily Summary

Daily Weather History Graph

Daily Weather History Graph

Search for Another Location

Airport:

Trip Planner

Search our weather history database for the weather conditions in past years. The results will help you decide how hot, cold, wet, or windy it might be!

Date:

Astronomy

Oct. 02, 2012 Rise Set
Actual Time 7:32 AM CDT 7:18 PM CDT
Civil Twilight 7:07 AM CDT 7:43 PM CDT
Nautical Twilight 6:38 AM CDT 8:13 PM CDT
Astronomical Twilight 6:08 AM CDT 8:42 PM CDT
Moon 8:40 PM CDT (10/2) 9:54 AM CDT (10/2)
Length of Visible Light 12h 36m
Length of Day
11h 45m
Waning Gibbous, 94% of the Moon is Illuminated
Oct 2
Waning Gibbous
Oct 8
Last Quarter
Oct 15
New
Oct 21
First Quarter
Oct 29
Full

Hourly Weather History & Observations

Time (CDT) Temp. Dew Point Humidity Pressure Visibility Wind Dir Wind Speed Gust Speed Precip Events Conditions
12:53 AM 55.9 °F 50.0 °F 80% 30.00 in 10.0 mi North 13.8 mph - N/A   Clear
1:53 AM 55.0 °F 48.9 °F 80% 30.02 in 10.0 mi North 12.7 mph - N/A   Clear
2:53 AM 55.9 °F 48.0 °F 75% 30.02 in 10.0 mi North 15.0 mph - N/A   Mostly Cloudy
3:53 AM 54.0 °F 46.9 °F 77% 30.01 in 10.0 mi North 13.8 mph - N/A   Clear
4:53 AM 54.0 °F 46.9 °F 77% 30.02 in 10.0 mi North 13.8 mph - N/A   Clear
5:53 AM 51.1 °F 46.9 °F 86% 30.03 in 10.0 mi North 10.4 mph - N/A   Clear
6:53 AM 53.1 °F 46.0 °F 77% 30.04 in 10.0 mi North 12.7 mph - N/A   Clear
7:53 AM 53.1 °F 46.0 °F 77% 30.05 in 10.0 mi North 11.5 mph - N/A   Clear
8:53 AM 57.0 °F 46.9 °F 69% 30.06 in 10.0 mi North 15.0 mph - N/A   Clear
9:53 AM 61.0 °F 46.9 °F 60% 30.07 in 10.0 mi North 13.8 mph - N/A   Clear
10:53 AM 64.9 °F 46.0 °F 50% 30.07 in 10.0 mi North 11.5 mph - N/A   Clear
11:53 AM 68.0 °F 42.1 °F 39% 30.05 in 10.0 mi North 11.5 mph - N/A   Clear
12:53 PM 70.0 °F 35.1 °F 28% 30.03 in 10.0 mi North 8.1 mph - N/A   Clear
1:53 PM 71.1 °F 32.0 °F 24% 30.00 in 10.0 mi NNW 8.1 mph 17.3 mph N/A   Clear
2:53 PM 71.1 °F 39.0 °F 31% 29.96 in 10.0 mi Variable 4.6 mph - N/A   Clear
3:53 PM 72.0 °F 36.0 °F 27% 29.95 in 10.0 mi Variable 4.6 mph - N/A   Clear
4:53 PM 72.0 °F 37.0 °F 28% 29.93 in 10.0 mi Variable 4.6 mph - N/A   Clear
5:53 PM 72.0 °F 37.0 °F 28% 29.92 in 10.0 mi Variable 3.5 mph - N/A   Clear
7:53 PM 64.0 °F 43.0 °F 46% 29.92 in 10.0 mi ESE 12.7 mph - N/A   Clear
8:53 PM 60.1 °F 44.1 °F 55% 29.93 in 10.0 mi ESE 12.7 mph - N/A   Clear
9:53 PM 59.0 °F 42.1 °F 53% 29.93 in 10.0 mi ESE 12.7 mph - N/A   Clear
10:53 PM 55.0 °F 42.1 °F 62% 29.93 in 10.0 mi ESE 11.5 mph - N/A   Clear
11:53 PM 53.1 °F 42.1 °F 66% 29.94 in 10.0 mi ESE 8.1 mph - N/A   Clear